Weather History for KSPG - December, 2013

Change the Weather History Date:

Monday, December 2, 2013

  Actual Average Record
Temperature  
Mean Temperature 66 °F -  
Max Temperature 71 °F 74 °F 87 °F (1991)
Min Temperature 61 °F 59 °F 41 °F (1960)
Cooling Degree Days 1    
Growing Degree Days 16 (Base 50)    
Moisture  
Dew Point 58 °F    
Average Humidity 77    
Maximum Humidity 97    
Minimum Humidity 54    
Precipitation  
Precipitation 0.00 in - - ()
Sea Level Pressure  
Sea Level Pressure 29.91 in    
Wind  
Wind Speed 5 mph (North)    
Max Wind Speed 9 mph    
Max Gust Speed -    
Visibility 10 miles    
Events      
Averages and records for this station are not official NWS values.
T = Trace of Precipitation, MM = Missing Value Source: NWS Daily Summary

Daily Weather History Graph

Daily Weather History Graph

Search for Another Location

Airport or City:

Trip Planner

Search our weather history database for the weather conditions in past years. The results will help you decide how hot, cold, wet, or windy it might be!

Date:

Astronomy

Dec. 02, 2013 Rise Set
Actual Time 7:05 AM EST 5:35 PM EST
Civil Twilight 6:39 AM EST 6:00 PM EST
Nautical Twilight 6:10 AM EST 6:29 PM EST
Astronomical Twilight 5:42 AM EST 6:57 PM EST
Moon 6:32 AM EST (12/2) 5:34 PM EST (12/2)
Length of Visible Light 11h 20m
Length of Day
10h 30m
Waning Crescent, 0% of the Moon is Illuminated
Dec 2
Waning Crescent
Dec 2
New
Dec 9
First Quarter
Dec 17
Full
Dec 25
Last Quarter

Hourly Weather History & Observations

Time (EST) Temp. Dew Point Humidity Pressure Visibility Wind Dir Wind Speed Gust Speed Precip Events Conditions
12:53 AM 63.0 °F 60.1 °F 90% 29.96 in 9.0 mi North 5.8 mph - N/A   Clear
1:53 AM 62.1 °F 59.0 °F 90% 29.96 in 8.0 mi NNW 6.9 mph - N/A   Clear
2:53 AM 62.1 °F 59.0 °F 90% 29.94 in 10.0 mi NNE 3.5 mph - N/A   Clear
3:53 AM 62.1 °F 60.1 °F 93% 29.94 in 10.0 mi North 4.6 mph - N/A   Clear
4:53 AM 62.1 °F 60.1 °F 93% 29.93 in 9.0 mi North 8.1 mph - N/A   Clear
5:15 AM 61.0 °F 60.1 °F 97% 29.93 in 6.0 mi North 6.9 mph - N/A   Scattered Clouds
5:53 AM 62.1 °F 60.1 °F 93% 29.93 in 8.0 mi North 5.8 mph - N/A   Clear
6:53 AM 63.0 °F 60.1 °F 90% 29.95 in 10.0 mi North 9.2 mph - N/A   Overcast
7:53 AM 63.0 °F 60.1 °F 90% 29.94 in 10.0 mi North 9.2 mph - N/A   Partly Cloudy
8:53 AM 64.0 °F 60.1 °F 87% 29.94 in 10.0 mi North 6.9 mph - N/A   Clear
9:53 AM 64.9 °F 60.1 °F 84% 29.94 in 10.0 mi North 6.9 mph - N/A   Clear
10:53 AM 68.0 °F 59.0 °F 73% 29.92 in 10.0 mi NNE 6.9 mph - N/A   Clear
11:53 AM 69.1 °F 57.9 °F 68% 29.91 in 10.0 mi NNE 4.6 mph - N/A   Scattered Clouds
12:53 PM 69.1 °F 57.9 °F 68% 29.88 in 10.0 mi North 5.8 mph - N/A   Clear
1:53 PM 70.0 °F 60.1 °F 71% 29.86 in 10.0 mi ENE 4.6 mph - N/A   Scattered Clouds
2:53 PM 71.1 °F 57.0 °F 61% 29.86 in 10.0 mi North 4.6 mph - N/A   Overcast
3:53 PM 70.0 °F 53.1 °F 55% 29.86 in 10.0 mi North 4.6 mph - N/A   Overcast
4:53 PM 69.1 °F 54.0 °F 58% 29.87 in 10.0 mi NNE 4.6 mph - N/A   Overcast
5:53 PM 69.1 °F 54.0 °F 58% 29.87 in 10.0 mi Calm Calm - N/A   Overcast
6:53 PM 69.1 °F 52.0 °F 54% 29.88 in 10.0 mi Calm Calm - N/A   Overcast
7:53 PM 68.0 °F 57.9 °F 70% 29.89 in 10.0 mi Calm Calm - N/A   Overcast
8:53 PM 68.0 °F 55.9 °F 65% 29.90 in 10.0 mi West 3.5 mph - N/A   Overcast
9:53 PM 68.0 °F 55.9 °F 65% 29.91 in 10.0 mi Calm Calm - N/A   Overcast
10:53 PM 66.9 °F 60.1 °F 79% 29.91 in 10.0 mi Calm Calm - N/A   Overcast
11:53 PM 66.9 °F 57.9 °F 73% 29.91 in 10.0 mi WSW 3.5 mph - N/A   Overcast